Location: Ammerl�gen
(47.2167°N, 9.6000°E)
Time: 13:57:17
(UTC+00:00)

Cosmos 676 Rocket - Pass Details

Date: 31 July 2021
Orbit: 755 x 783 km, 74.0° (Epoch: 26 September)

Event Time Altitude Azimuth Distance (km) Brightness Sun altitude
Exits shadow 02:37:19 16° 235° (SW) 1,939 5.4 -12.0°
Maximum altitude 02:41:12 42° 300° (WNW) 1,111 4.7 -11.5°
Drops below altitude 10° 02:46:16 10° 11° (N) 2,349 7.4 -10.9°
Sets 02:48:48 0° 18° (NNE) 3,279 8.4 -10.6°
